Regional Weather Roundup
Issued by NWS

Home | Current Version | Previous Version | Graphics & Text | Print | Product List | Glossary On
Versions: 1 2 3 4 5 6 7 8 9 10 11 12 13 14 15 16 17 18 19 20 21 22 23 24 25 26 27 28 29 30 31 32 33 34 35 36 37 38 39 40 41 42 43 44 45 46 47 48 49 50
000
ASUS43 KBIS 010910
RWRND

NORTH DAKOTA REGIONAL WEATHER ROUNDUP
NATIONAL WEATHER SERVICE BISMARCK ND
400 AM CDT WED JUL 01 2015

NOTE: "FAIR" INDICATES FEW OR NO CLOUDS BELOW 12,000 FEET WITH NO
SIGNIFICANT WEATHER AND/OR OBSTRUCTIONS TO VISIBILITY.


NDZ001>003-009>011-017-011000-
NORTHWEST NORTH DAKOTA

CITY           SKY/WX    TMP DP  RH WIND       PRES   REMARKS
WILLISTON      MOCLDY    60  58  92 N8        29.95R FOG
MINOT          FOG       61  60  97 NW3       29.92S VSB 1/4
MINOT AFB      FOG       64  64 100 N7        29.92R VSB 1/4
$$

NDZ018>021-031>035-040>046-011000-
SOUTHWEST NORTH DAKOTA

CITY           SKY/WX    TMP DP  RH WIND       PRES   REMARKS
BISMARCK       CLEAR     61  59  93 SE3       29.90S
DICKINSON      CLOUDY    62  59  90 SE9       29.90S
GARRISON         N/A     59  58  96 N5        29.92S
HETTINGER ARPT FOG       61  59  93 E5        29.91S VSB 3/4
$$

NDZ004>008-012>016-024-026-027-054-011000-
NORTHEAST NORTH DAKOTA

CITY           SKY/WX    TMP DP  RH WIND       PRES   REMARKS
GRAND FORKS    PTCLDY    56  54  93 CALM      29.92S
GRND FRKS AFB  FOG       55  54  94 N2        29.93S VSB 1/2
DEVILS LAKE    PTCLDY    57  52  82 CALM      29.93R
$$

NDZ022-023-025-028>030-036>039-047>053-011000-
SOUTHEAST NORTH DAKOTA

CITY           SKY/WX    TMP DP  RH WIND       PRES   REMARKS
FARGO          CLOUDY    64  60  87 CALM      29.92R
JAMESTOWN      LGT RAIN  63  61  93 E8        29.91R
$$



USA.gov is the U.S. government's official web portal to all federal, state and local government web resources and services.